Simultaneous Nadir Overpasses (SNOs) Predictions

Prediction of SNOs between FY3D and AQUA Satellite Orbit:

Table of predicted SNOs for the next 14.0 days since TLE Epoch: 8/22/2020
Index Date (FY3D) Time (FY3D) Lat,Lon (FY3D) SZA (FY3D ) Date (AQUA) Time (AQUA) Lat,Lon (AQUA) SZA (AQUA ) Distance(km) Time Diff (sec)
1 08/24/2020 11:16:54 58.03,-132.19 105.11 08/24/2020 11:17:39 58.03,-132.20 105.05 0.73 45
2 08/24/2020 12:05:47 -64.36, 40.00 81.17 08/24/2020 12:05:18 -64.36, 39.99 81.13 0.35 29
3 08/27/2020 03:33:50 56.15, -17.41 107.75 08/27/2020 03:34:40 56.16, -17.39 107.67 1.80 50
4 08/27/2020 04:22:18 -63.91, 155.50 79.89 08/27/2020 04:21:55 -63.91, 155.48 79.85 0.76 23
5 08/29/2020 19:50:16 55.92, 98.37 108.79 08/29/2020 19:51:12 55.92, 98.37 108.72 0.09 56
6 08/29/2020 20:38:47 -63.52, -88.94 78.65 08/29/2020 20:38:30 -63.52, -88.97 78.61 1.61 17
7 09/01/2020 12:07:09 54.21,-146.67 111.27 09/01/2020 12:08:10 54.21,-146.64 111.17 1.71 61
8 09/01/2020 12:55:37 -62.02, 25.71 76.30 09/01/2020 12:55:25 -62.03, 25.74 76.30 1.59 12
9 09/01/2020 13:35:14 74.77, -35.19 67.03 09/01/2020 13:34:02 75.27, -32.65 67.41 91.68 72
10 09/04/2020 04:23:33 54.15, -30.79 112.16 09/04/2020 04:24:40 54.14, -30.80 112.07 0.76 67
11 09/04/2020 05:12:03 -61.85, 141.49 75.27 09/04/2020 05:11:57 -61.85, 141.48 75.26 0.15 6
